User: anonymous   Login
Location: Medlow Airstrip Trail, Medlow Bath NSW 2780, Australia
(33.6682°S, 150.3233°E)
Time: 14:03:49
(UTC+10:00)
Language:

A-11 Canister half - Orbit

View from above orbital plane
View from above orbital plane
View from above satellite
View from above satellite

Ground track
Ground track

The orbit data is extracted from the following two-line orbital elements,

1    53U 60009E   19260.38167366 -.00000086 +00000-0 -73970-5 0  9998
2    53 047.2785 024.1681 0097131 351.5446 008.3705 12.17229011635186
Epoch (UTC): 17 September 2019 09:09:36
Eccentricity: 0.0097131
inclination: 47.2785°
perigee height: 1527 km
apogee height: 1682 km
right ascension of ascending node: 24.1681°
argument of perigee: 351.5446°
revolutions per day: 12.17229011
mean anomaly at epoch: 8.3705°
orbit number at epoch: 63518

The dashed part of the orbit path shows where the satellite is in the earth's shadow,  

DLR